Tracking 18942 objects as of 18-Jan-2018
HD Live streaming from Space Station
objects crossing your sky now

FENGYUN 1C DEB

Track FENGYUN 1C DEB now!
10-day predictions


NORAD ID: 31042
Int'l Code: 1999-025BEL
Perigee: 639.6 km
Apogee: 734.2 km
Inclination: 99.0 °
Period: 98.3 minutes
Semi major axis: 7057 km
RCS: 0.0041 m2 (small)
Launch date: May 10, 1999
Source: People's Republic of China (PRC)
Launch site: Taiyaun Space Center, China (TSC)

Note: This is SATELLITE DEBRIS
aabbcc
Your satellite tracking list
Your tracking list is empty




NASA's NSSDC Master Catalog

Two Line Element Set (TLE):
1 31042U 99025BEL 18016.29298353 +.00001518 +00000-0 +29072-3 0  9990
2 31042 099.0335 323.8729 0066973 281.7551 077.6141 14.64167030570915
Source of the keplerian elements: AFSPC